Location: Deer Lodge Site
(39.6809°N, 119.9392°W)
Time: 04:23:44
(UTC-07:00)

Amateur Radio Satellites - All Passes

Search period start: 28 June 2016 03:53
Search period end: 29 June 2016 03:53
Location: Deer Lodge Site, 39.6809°N, 119.9392°W

Satellite Date Start Highest point End Downlink Frequencies (MHz)
Time Altitude Azimuth
O/OREOS (USA 219) 28 Jun 03:59:09 04:03:11 32° 298° (WNW) 04:07:14 437.305
MOZHAYETS 4 28 Jun 04:03:12 04:07:48 81° 78° (ENE) 04:12:29
PCSat 28 Jun 04:05:57 04:10:08 22° 312° (NW) 04:14:20 145.827
BEESAT 3 28 Jun 04:16:04 04:18:52 18° 313° (NW) 04:21:41 437.485
KKS-1 28 Jun 04:17:20 04:21:41 60° 259° (W) 04:26:05 437.445
Oscar 19 28 Jun 04:21:19 04:22:21 11° 301° (WNW) 04:23:24 437.125/150
Gurwin Techsat 1B 28 Jun 04:31:28 04:35:13 20° 297° (WNW) 04:38:59 435.225
AO-7 28 Jun 04:34:25 04:42:43 60° 104° (ESE) 04:50:55 29.400- 29.500
ITAMSAT 1 28 Jun 04:39:21 04:44:15 42° 290° (WNW) 04:49:09 435.822/435.867
STARS 28 Jun 04:51:06 04:55:20 50° 260° (W) 04:59:36 437.465
BEESAT 2 28 Jun 04:53:30 04:55:48 15° 316° (NW) 04:58:08 435.950
GONETS M04 28 Jun 05:04:28 05:12:15 35° 72° (ENE) 05:20:01
Cosmos 2499 28 Jun 05:21:55 05:29:25 30° 69° (ENE) 05:36:31 435.465 / 435.565
AIST 1 28 Jun 05:22:01 05:25:48 31° 269° (W) 05:29:34
AIST 2 28 Jun 05:28:52 05:32:58 87° 120° (ESE) 05:37:07 435.215
CUBESAT XI-V 28 Jun 05:29:17 05:33:58 77° 77° (ENE) 05:38:41 437.345
HORYU 2 28 Jun 05:34:30 05:38:51 46° 100° (E) 05:43:09 437.375
AO-85 28 Jun 05:50:01 05:53:29 21° 44° (NE) 05:56:43 145.980
NOAA 15 28 Jun 06:06:56 06:10:48 21° 94° (E) 06:14:38 137.62
PHONESAT 2.4 28 Jun 06:09:13 06:10:23 12° 146° (SSE) 06:11:34 2401.200-2431.200
AO-7 28 Jun 06:27:54 06:34:59 32° 302° (WNW) 06:42:03 29.400- 29.500
NOAA 18 28 Jun 06:32:28 06:37:14 29° 96° (E) 06:41:58 137.9125
STRAND 1 28 Jun 06:38:55 06:43:22 31° 68° (ENE) 06:47:51 437.568
Cubesat XI-IV 28 Jun 06:41:43 06:46:30 32° 96° (E) 06:51:16 437.490
CUSAT 1 28 Jun 06:42:27 06:48:30 26° 89° (E) 06:53:55 437.405
LilacSat-2 28 Jun 07:00:51 07:04:37 48° 99° (E) 07:08:24 437.200
GONETS M04 28 Jun 07:01:00 07:09:17 50° 271° (W) 07:17:35
DANDE 28 Jun 07:01:17 07:06:49 20° 83° (E) 07:12:07 436.750
AIST 2 28 Jun 07:10:31 07:12:03 12° 319° (NW) 07:13:36 435.215
HORYU 2 28 Jun 07:12:07 07:15:01 17° 295° (WNW) 07:17:54 437.375
Cosmos 2499 28 Jun 07:14:29 07:23:02 59° 269° (W) 07:31:04 435.465 / 435.565
CUTE-I 28 Jun 07:15:50 07:21:13 68° 102° (ESE) 07:26:32 437.470
BRITE-PL 28 Jun 07:20:37 07:24:45 69° 284° (WNW) 07:28:54 437.365/2234.400
DOVE 4 28 Jun 07:21:15 07:24:42 23° 95° (E) 07:28:17 437.250
AO-85 28 Jun 07:29:57 07:34:11 43° 245° (WSW) 07:38:04 145.980
PHONESAT 2.4 28 Jun 07:43:34 07:46:33 51° 161° (SSE) 07:49:32 2401.200-2431.200
NOAA 15 28 Jun 07:45:46 07:50:47 46° 289° (WNW) 07:55:45 137.62
CANX-2 28 Jun 07:46:23 07:47:29 11° 90° (E) 07:48:36 2200.000
GOMX 1 28 Jun 07:56:11 08:00:21 64° 285° (WNW) 08:04:40 467.674
CUTE 1.7 + AOD 2 28 Jun 08:05:04 08:07:45 16° 92° (E) 08:10:24 437.475
SEEDS 28 Jun 08:10:25 08:12:19 13° 91° (E) 08:14:14 437.485
NOAA 18 28 Jun 08:12:51 08:17:54 37° 292° (WNW) 08:22:57 137.9125
HO-68 28 Jun 08:17:02 08:23:20 32° 96° (E) 08:29:35 435.675
STRAND 1 28 Jun 08:17:57 08:22:28 31° 264° (W) 08:27:01 437.568
CINEMA 3 28 Jun 08:19:27 08:23:26 29° 96° (E) 08:27:35 145.822/145.860
Cubesat XI-IV 28 Jun 08:21:47 08:26:30 32° 293° (WNW) 08:31:12 437.490
CUSAT 1 28 Jun 08:22:29 08:30:16 62° 281° (W) 08:36:53 437.405
LilacSat-2 28 Jun 08:36:55 08:38:30 12° 295° (WNW) 08:40:05 437.200
ISS 28 Jun 08:40:16 08:43:19 38° 136° (SE) 08:46:23 145.825
DANDE 28 Jun 08:40:24 08:48:51 88° 278° (W) 08:56:45 436.750
PRISM 28 Jun 08:42:43 08:46:53 86° 76° (ENE) 08:51:03 437.425
AAUSAT CUBESAT 2 28 Jun 08:49:35 08:52:40 20° 94° (E) 08:55:43 437.432
CUTE-I 28 Jun 08:57:26 09:00:39 16° 299° (WNW) 09:03:51 437.470
DOVE 4 28 Jun 08:58:37 09:02:25 30° 289° (WNW) 09:06:22 437.250
Oscar 11 28 Jun 09:01:01 09:01:20 10° 89° (E) 09:01:40 145.826/435.025
FUNcube-1 28 Jun 09:06:56 09:08:35 12° 90° (E) 09:10:13 145.935
UWE-3 28 Jun 09:07:50 09:11:17 21° 94° (E) 09:14:44 435.000/436.395/437.385
M-CUBED/EXP-1 PRIME 28 Jun 09:14:58 09:17:41 17° 100° (E) 09:20:30 437.505
CANX-2 28 Jun 09:19:29 09:23:43 60° 286° (WNW) 09:27:55 2200.000
PHONESAT 2.4 28 Jun 09:20:04 09:23:08 74° 358° (N) 09:26:13 2401.200-2431.200
COMPASS 1 28 Jun 09:22:31 09:26:42 62° 101° (E) 09:30:49 437.405
TIGRISAT 28 Jun 09:22:55 09:25:05 14° 63° (ENE) 09:27:17 435.000
UNISAT 6 28 Jun 09:27:21 09:30:02 16° 65° (ENE) 09:32:46 437.425
CUTE 1.7 + AOD 2 28 Jun 09:39:44 09:43:45 40° 288° (WNW) 09:47:45 437.475
SEEDS 28 Jun 09:44:12 09:48:19 50° 286° (WNW) 09:52:23 437.485
CUBEBUG 2 28 Jun 09:55:12 09:59:50 85° 286° (WNW) 10:04:33 437.445
CINEMA 3 28 Jun 09:56:40 10:00:28 27° 290° (WNW) 10:04:23 145.822/145.860
HO-68 28 Jun 10:04:21 10:11:11 48° 293° (WNW) 10:18:00 435.675
HUMSAT D 28 Jun 10:05:07 10:06:35 11° 90° (E) 10:08:03 437.325/437.525
ANTELSAT 28 Jun 10:05:33 10:09:35 41° 72° (ENE) 10:13:43 437.575/2403.000
AUBIESAT-1 28 Jun 10:09:17 10:13:12 62° 106° (ESE) 10:17:24 437.475
CUSAT 1 28 Jun 10:11:48 10:13:11 11° 296° (WNW) 10:14:33 437.405
ISS 28 Jun 10:17:01 10:19:50 26° 333° (NNW) 10:22:39 145.825
ZACube-1 28 Jun 10:22:53 10:27:27 87° 99° (E) 10:32:03 437.345
AAUSAT CUBESAT 2 28 Jun 10:24:30 10:28:12 31° 289° (WNW) 10:31:51 437.432
DANDE 28 Jun 10:26:48 10:32:29 20° 295° (WNW) 10:37:55 436.750
Cosmos 2491 28 Jun 10:27:40 10:32:52 17° 62° (ENE) 10:38:03 435.465 / 435.565
Oscar 11 28 Jun 10:33:33 10:37:53 66° 285° (WNW) 10:42:11 145.826/435.025
DELFI C3 28 Jun 10:38:07 10:42:05 62° 101° (E) 10:46:00 145.870
FUNcube-1 28 Jun 10:40:40 10:45:11 64° 285° (WNW) 10:49:42 145.935
UWE-3 28 Jun 10:43:34 10:47:49 38° 288° (WNW) 10:52:05 435.000/436.395/437.385
M-CUBED/EXP-1 PRIME 28 Jun 10:48:40 10:52:15 36° 292° (WNW) 10:56:05 437.505
RS-15 28 Jun 10:51:36 11:00:58 32° 103° (ESE) 11:10:42 29.354- 29.394
BEESAT 3 28 Jun 10:55:38 10:58:40 21° 48° (NE) 11:01:41 437.485
PHONESAT 2.4 28 Jun 10:56:43 10:59:48 74° 194° (SSW) 11:02:51 2401.200-2431.200
TIGRISAT 28 Jun 10:57:06 11:01:17 53° 260° (W) 11:05:35 435.000
COMPASS 1 28 Jun 11:00:24 11:01:42 11° 297° (WNW) 11:03:00 437.405
UNISAT 6 28 Jun 11:02:17 11:06:22 43° 261° (W) 11:10:34 437.425
BUGSAT 1 28 Jun 11:03:14 11:04:23 11° 64° (ENE) 11:05:32 437.445
PCSat 28 Jun 11:09:50 11:14:55 39° 54° (NE) 11:19:57 145.827
NANOSAT C BR1 28 Jun 11:17:56 11:21:50 40° 72° (ENE) 11:25:46 145.865
QB50P1 28 Jun 11:20:41 11:24:41 46° 73° (ENE) 11:28:44 145.935-145.965
POPSAT HIP 1 28 Jun 11:23:51 11:27:53 49° 73° (ENE) 11:31:57 437.405
ESTCUBE 1 28 Jun 11:26:28 11:29:21 17° 93° (E) 11:32:13 437.505/2401.250
AISAT 28 Jun 11:32:40 11:34:13 12° 91° (E) 11:35:46 437.250
BEESAT 2 28 Jun 11:32:45 11:36:12 27° 50° (NE) 11:39:38 435.950
QB50P2 28 Jun 11:35:57 11:40:08 75° 76° (ENE) 11:44:21 145.880/145.840
HUMSAT D 28 Jun 11:38:17 11:42:33 58° 286° (WNW) 11:46:47 437.325/437.525
DUCHIFAT 1 28 Jun 11:38:22 11:42:29 67° 75° (ENE) 11:46:39 145.980
POLYITAN 1 28 Jun 11:38:35 11:42:45 77° 75° (ENE) 11:46:58 437.675
ANTELSAT 28 Jun 11:43:49 11:46:30 16° 268° (W) 11:49:14 437.575/2403.000
AUBIESAT-1 28 Jun 11:45:52 11:47:18 12° 300° (WNW) 11:48:45 437.475
JAS-2 28 Jun 11:50:41 11:57:22 35° 67° (ENE) 12:03:34 435.910
DX 1 28 Jun 11:52:45 11:55:07 14° 92° (E) 11:57:29 434.975-435.025
ISS 28 Jun 11:56:11 11:57:09 11° 353° (N) 11:58:08 145.825
YUBILEINY 28 Jun 12:07:45 12:15:01 31° 83° (E) 12:22:18 435.215
DELFI C3 28 Jun 12:15:45 12:16:23 10° 297° (WNW) 12:17:00 145.870
Oscar 19 28 Jun 12:18:03 12:21:03 16° 62° (ENE) 12:24:03 437.125/150
CUBEBUG 1 28 Jun 12:18:26 12:22:31 40° 99° (E) 12:26:35 437.445
Cosmos 2491 28 Jun 12:22:19 12:31:05 85° 83° (E) 12:39:50 435.465 / 435.565
VELOX 1 28 Jun 12:25:57 12:30:10 44° 99° (E) 12:34:22 145.980
O/OREOS (USA 219) 28 Jun 12:30:16 12:34:28 38° 63° (ENE) 12:38:39 437.305
BEESAT 3 28 Jun 12:32:49 12:36:27 35° 245° (WSW) 12:40:03 437.485
PHONESAT 2.4 28 Jun 12:33:48 12:36:07 19° 209° (SSW) 12:38:26 2401.200-2431.200
BUGSAT 1 28 Jun 12:35:18 12:39:15 58° 259° (W) 12:43:13 437.445
PCSat 28 Jun 12:53:32 12:58:08 29° 252° (WSW) 13:02:42 145.827
NANOSAT C BR1 28 Jun 12:55:15 12:57:45 15° 268° (W) 13:00:16 145.865
50 SAT 28 Jun 12:55:21 12:59:01 63° 285° (WNW) 13:02:38 437.505
QB50P1 28 Jun 12:58:35 13:00:43 14° 268° (W) 13:02:51 145.935-145.965
RS-15 28 Jun 13:00:55 13:12:18 72° 305° (NW) 13:24:25 29.354- 29.394
POPSAT HIP 1 28 Jun 13:02:05 13:03:57 13° 269° (W) 13:05:49 437.405
ESTCUBE 1 28 Jun 13:02:05 13:06:22 43° 288° (WNW) 13:10:36 437.505/2401.250
AISAT 28 Jun 13:06:43 13:11:03 59° 286° (WNW) 13:15:22 437.250
UKube-1 28 Jun 13:07:35 13:11:55 82° 103° (ESE) 13:16:14 .
SPROUT 28 Jun 13:09:25 13:13:40 61° 100° (E) 13:17:54 437.525
BEESAT 2 28 Jun 13:10:37 13:13:57 26° 247° (WSW) 13:17:16 435.950
Cosmos 2504 28 Jun 13:21:32 13:28:03 28° 82° (E) 13:34:55 435.465 / 435.565
DX 1 28 Jun 13:27:23 13:31:33 47° 288° (WNW) 13:35:42 434.975-435.025
ISS 28 Jun 13:33:08 13:34:46 13° 14° (NNE) 13:36:23 145.825
JAS-2 28 Jun 13:34:48 13:42:10 47° 261° (W) 13:48:59 435.910
AO-7 28 Jun 13:44:15 13:49:02 17° 49° (NE) 13:53:51 29.400- 29.500
AIST 2 28 Jun 13:51:01 13:55:00 42° 54° (NE) 13:58:58 435.215
Oscar 19 28 Jun 13:54:43 13:59:49 65° 258° (WSW) 14:04:56 437.125/150
CUBEBUG 1 28 Jun 13:55:39 13:58:29 17° 294° (WNW) 14:01:19 437.445
YUBILEINY 28 Jun 14:02:48 14:11:17 55° 282° (WNW) 14:19:53 435.215
VELOX 1 28 Jun 14:03:30 14:06:15 17° 295° (WNW) 14:09:01 145.980
O/OREOS (USA 219) 28 Jun 14:10:26 14:13:33 19° 259° (W) 14:16:41 437.305
Gurwin Techsat 1B 28 Jun 14:10:39 14:15:57 77° 74° (ENE) 14:21:17 435.225
ITAMSAT 1 28 Jun 14:17:33 14:22:08 33° 68° (ENE) 14:26:46 435.822/435.867
Cosmos 2491 28 Jun 14:21:20 14:26:43 18° 282° (WNW) 14:32:08 435.465 / 435.565
TISAT 1 28 Jun 14:30:09 14:34:20 65° 284° (WNW) 14:38:30 437.305
SPROUT 28 Jun 14:47:25 14:49:05 12° 297° (WNW) 14:50:45 437.525
SWISSCUBE 28 Jun 14:54:40 14:59:13 42° 99° (E) 15:03:45 437.505
ISS 28 Jun 15:08:43 15:11:51 43° 33° (NNE) 15:15:00 145.825
Cosmos 2504 28 Jun 15:12:46 15:20:43 60° 282° (WNW) 15:29:18 435.465 / 435.565
RS-15 28 Jun 15:17:53 15:27:25 27° 334° (NNW) 15:37:20 29.354- 29.394
BEESAT 28 Jun 15:19:47 15:24:36 71° 102° (ESE) 15:29:21 436.000
ITUPSAT 1 28 Jun 15:20:48 15:25:38 71° 102° (ESE) 15:30:24 437.325
AIST 2 28 Jun 15:30:25 15:33:09 17° 250° (WSW) 15:35:51 435.215
AO-7 28 Jun 15:32:08 15:40:24 74° 69° (ENE) 15:48:45 29.400- 29.500
Gurwin Techsat 1B 28 Jun 15:54:24 15:56:27 12° 270° (W) 15:58:32 435.225
ITAMSAT 1 28 Jun 15:57:03 16:01:34 30° 264° (W) 16:06:07 435.822/435.867
MOZHAYETS 4 28 Jun 15:59:54 16:03:21 20° 93° (E) 16:06:46
KKS-1 28 Jun 16:09:22 16:13:08 26° 96° (E) 16:16:53 437.445
SO-50 28 Jun 16:11:10 16:16:03 81° 121° (ESE) 16:20:57 436.795
AIST 1 28 Jun 16:15:22 16:16:55 12° 84° (E) 16:18:28
HORYU 2 28 Jun 16:31:40 16:35:46 38° 71° (ENE) 16:39:53 437.375
SWISSCUBE 28 Jun 16:33:13 16:36:42 20° 295° (WNW) 16:40:10 437.505
STARS 28 Jun 16:41:23 16:45:15 29° 97° (E) 16:49:06 437.465
ISS 28 Jun 16:45:41 16:48:05 19° 228° (SW) 16:50:29 145.825
BRITE-PL 28 Jun 16:54:43 16:56:58 13° 65° (ENE) 16:59:08 437.365/2234.400
BEESAT 28 Jun 16:59:37 17:01:45 13° 299° (WNW) 17:03:55 436.000
CUTE-I 28 Jun 17:00:21 17:02:51 13° 60° (ENE) 17:05:21 437.470
ITUPSAT 1 28 Jun 17:00:40 17:02:50 13° 299° (WNW) 17:05:01 437.325
Cosmos 2504 28 Jun 17:14:23 17:16:17 11° 305° (NW) 17:18:12 435.465 / 435.565
NOAA 15 28 Jun 17:25:55 17:30:32 31° 67° (ENE) 17:35:09 137.62
CUBESAT XI-V 28 Jun 17:27:36 17:30:59 20° 93° (E) 17:34:20 437.345
JUGNU 28 Jun 17:27:38 17:28:32 10° 181° (S) 17:29:25 437.505
AO-7 28 Jun 17:27:39 17:33:51 23° 267° (W) 17:40:07 29.400- 29.500
GOMX 1 28 Jun 17:28:51 17:30:19 11° 64° (ENE) 17:31:46 467.674
MOZHAYETS 4 28 Jun 17:36:20 17:40:37 38° 289° (WNW) 17:44:52
RS-15 28 Jun 17:37:18 17:45:52 21° 10° (N) 17:54:34 29.354- 29.394
LilacSat-2 28 Jun 17:42:40 17:45:32 21° 69° (ENE) 17:48:27 437.200
KKS-1 28 Jun 17:45:53 17:49:37 27° 292° (WNW) 17:53:22 437.445
AIST 1 28 Jun 17:49:46 17:54:00 52° 280° (W) 17:58:13
SO-50 28 Jun 17:54:04 17:57:08 16° 319° (NW) 18:00:11 436.795
NOAA 18 28 Jun 17:57:47 18:03:02 50° 70° (ENE) 18:08:20 137.9125
Cosmos 2499 28 Jun 17:58:04 18:04:16 24° 80° (E) 18:10:41 435.465 / 435.565
Cubesat XI-IV 28 Jun 18:02:45 18:07:52 49° 71° (ENE) 18:13:01 437.490
GONETS M04 28 Jun 18:04:36 18:12:30 41° 87° (E) 18:20:23
HORYU 2 28 Jun 18:09:20 18:12:26 19° 266° (W) 18:15:33 437.375
STARS 28 Jun 18:17:55 18:21:28 24° 292° (WNW) 18:25:00 437.465
DOVE 4 28 Jun 18:26:43 18:29:52 20° 68° (ENE) 18:32:58 437.250
BRITE-PL 28 Jun 18:29:54 18:34:59 70° 259° (WSW) 18:39:43 437.365/2234.400
CUTE-I 28 Jun 18:36:48 18:42:09 82° 256° (WSW) 18:47:33 437.470
HO-68 28 Jun 18:45:53 18:51:13 23° 58° (ENE) 18:56:32 435.675
STRAND 1 28 Jun 18:53:20 18:53:51 10° 89° (E) 18:54:22 437.568
CUTE 1.7 + AOD 2 28 Jun 18:58:32 18:59:52 11° 63° (ENE) 19:01:11 437.475
CUSAT 1 28 Jun 19:00:58 19:04:36 82° 258° (WSW) 19:07:28 437.405
GOMX 1 28 Jun 19:03:18 19:07:56 68° 258° (WSW) 19:12:19 467.674
CUBESAT XI-V 28 Jun 19:04:13 19:08:29 38° 289° (WNW) 19:12:43 437.345
NOAA 15 28 Jun 19:05:33 19:10:14 31° 263° (W) 19:14:55 137.62
LilacSat-2 28 Jun 19:16:37 19:19:43 24° 265° (W) 19:22:52 437.200
CINEMA 3 28 Jun 19:21:11 19:24:22 22° 68° (ENE) 19:27:34 145.822/145.860
DANDE 28 Jun 19:24:32 19:29:25 61° 77° (ENE) 19:33:01 436.750
NOAA 18 28 Jun 19:39:58 19:43:58 20° 267° (W) 19:47:58 137.9125
AAUSAT CUBESAT 2 28 Jun 19:40:15 19:42:11 13° 64° (ENE) 19:44:08 437.432
Cubesat XI-IV 28 Jun 19:44:16 19:48:10 20° 267° (W) 19:52:06 437.490
Cosmos 2499 28 Jun 19:48:10 19:56:25 71° 280° (W) 20:05:15 435.465 / 435.565
RS-15 28 Jun 19:51:25 20:03:00 43° 42° (NE) 20:14:29 29.354- 29.394
GONETS M04 28 Jun 20:01:04 20:09:12 42° 286° (WNW) 20:17:22
M-CUBED/EXP-1 PRIME 28 Jun 20:02:04 20:04:01 15° 62° (ENE) 20:05:59 437.505
DOVE 4 28 Jun 20:03:31 20:07:25 32° 263° (W) 20:11:12 437.250
UWE-3 28 Jun 20:05:20 20:07:33 14° 64° (ENE) 20:09:47 435.000/436.395/437.385
CANX-2 28 Jun 20:10:51 20:15:08 84° 77° (ENE) 20:19:27 2200.000
COMPASS 1 28 Jun 20:12:18 20:16:10 36° 72° (ENE) 20:20:03 437.405
PRISM 28 Jun 20:27:13 20:28:44 12° 92° (E) 20:30:14 437.425
STRAND 1 28 Jun 20:28:27 20:33:39 85° 282° (WNW) 20:38:47 437.568
CUTE 1.7 + AOD 2 28 Jun 20:30:53 20:35:07 66° 260° (W) 20:39:24 437.475
HO-68 28 Jun 20:31:08 20:38:15 70° 256° (WSW) 20:45:26 435.675
SEEDS 28 Jun 20:34:26 20:38:41 84° 261° (W) 20:42:58 437.485
CUBEBUG 2 28 Jun 20:52:31 20:56:39 70° 75° (ENE) 21:00:53 437.445
AUBIESAT-1 28 Jun 20:55:26 20:58:41 63° 70° (ENE) 21:01:59 437.475
CINEMA 3 28 Jun 20:57:50 21:01:23 28° 264° (W) 21:04:58 145.822/145.860
AAUSAT CUBESAT 2 28 Jun 21:13:06 21:17:12 53° 261° (W) 21:21:19 437.432
ZACube-1 28 Jun 21:17:45 21:21:51 59° 75° (ENE) 21:26:06 437.345
DELFI C3 28 Jun 21:23:11 21:26:46 31° 71° (ENE) 21:30:21 145.870
Oscar 11 28 Jun 21:26:58 21:31:18 83° 77° (ENE) 21:35:41 145.826/435.025
FUNcube-1 28 Jun 21:35:06 21:39:17 88° 70° (ENE) 21:43:35 145.935
M-CUBED/EXP-1 PRIME 28 Jun 21:35:39 21:38:25 25° 258° (WSW) 21:41:11 437.505
UWE-3 28 Jun 21:39:32 21:43:34 48° 261° (W) 21:47:43 435.000/436.395/437.385
AO-85 28 Jun 21:41:34 21:47:00 74° 119° (ESE) 21:52:16 145.980
Cosmos 2499 28 Jun 21:47:16 21:51:21 14° 302° (WNW) 21:55:32 435.465 / 435.565
COMPASS 1 28 Jun 21:49:01 21:51:50 17° 267° (W) 21:54:41 437.405
PRISM 28 Jun 22:00:22 22:04:20 50° 287° (WNW) 22:08:15 437.425
RS-15 28 Jun 22:04:05 22:16:13 66° 246° (WSW) 22:28:10 29.354- 29.394
STRAND 1 28 Jun 22:10:49 22:11:58 11° 301° (WNW) 22:13:07 437.568
YUBILEINY 28 Jun 22:19:42 22:23:57 14° 59° (ENE) 22:28:10 435.215
ESTCUBE 1 28 Jun 22:25:47 22:28:23 15° 64° (ENE) 22:30:59 437.505/2401.250
HUMSAT D 28 Jun 22:28:15 22:32:24 84° 76° (ENE) 22:36:39 437.325/437.525
AISAT 28 Jun 22:30:38 22:31:25 10° 62° (ENE) 22:32:13 437.250
DX 1 28 Jun 22:48:28 22:50:16 12° 63° (ENE) 22:52:02 434.975-435.025
TIGRISAT 28 Jun 22:49:12 22:53:25 33° 97° (E) 22:57:39 435.000
UNISAT 6 28 Jun 22:54:19 22:58:43 40° 98° (E) 23:03:07 437.425
ZACube-1 28 Jun 22:57:34 22:58:34 11° 271° (W) 22:59:34 437.345
DELFI C3 28 Jun 22:58:49 23:01:40 19° 266° (W) 23:04:33 145.870
CUBEBUG 1 28 Jun 23:13:38 23:17:28 31° 70° (ENE) 23:21:17 437.445
VELOX 1 28 Jun 23:22:24 23:26:25 36° 71° (ENE) 23:30:27 145.980
QB50P2 28 Jun 23:23:23 23:25:25 13° 92° (E) 23:27:25 145.880/145.840
AO-85 28 Jun 23:24:08 23:28:00 20° 316° (NW) 23:31:46 145.980
DUCHIFAT 1 28 Jun 23:25:36 23:26:54 11° 91° (E) 23:28:10 145.980
POLYITAN 1 28 Jun 23:25:56 23:28:03 13° 92° (E) 23:30:10 437.675
Cosmos 2491 28 Jun 23:29:18 23:34:57 19° 79° (ENE) 23:40:34 435.465 / 435.565
50 SAT 28 Jun 23:32:03 23:35:37 47° 74° (ENE) 23:39:13 437.505
ANTELSAT 28 Jun 23:33:56 23:38:36 77° 284° (WNW) 23:43:18 437.575/2403.000
ESTCUBE 1 29 Jun 00:00:18 00:04:44 53° 260° (W) 00:09:12 437.505/2401.250
UKube-1 29 Jun 00:00:59 00:05:14 61° 74° (ENE) 00:09:30 .
SPROUT 29 Jun 00:02:05 00:06:03 40° 72° (ENE) 00:10:03 437.525
AISAT 29 Jun 00:02:52 00:07:16 76° 258° (WSW) 00:11:40 437.250
YUBILEINY 29 Jun 00:13:36 00:22:27 73° 81° (E) 00:31:17 435.215
BUGSAT 1 29 Jun 00:18:23 00:21:27 20° 95° (E) 00:24:31 437.445
RS-15 29 Jun 00:21:30 00:26:08 13° 266° (W) 00:30:46 29.354- 29.394
DX 1 29 Jun 00:21:37 00:25:55 62° 259° (WSW) 00:30:14 434.975-435.025
TIGRISAT 29 Jun 00:26:11 00:29:55 24° 292° (WNW) 00:33:40 435.000
UNISAT 6 29 Jun 00:31:43 00:35:07 21° 294° (WNW) 00:38:35 437.425
NANOSAT C BR1 29 Jun 00:38:17 00:42:33 87° 101° (E) 00:46:49 145.865
QB50P1 29 Jun 00:41:32 00:45:48 82° 284° (WNW) 00:50:04 145.935-145.965
SO-50 29 Jun 00:43:43 00:48:18 55° 55° (NE) 00:52:44 436.795
POPSAT HIP 1 29 Jun 00:44:48 00:49:04 76° 284° (WNW) 00:53:20 437.405
JAS-2 29 Jun 00:46:56 00:51:15 23° 92° (E) 00:55:21 435.910
CUBEBUG 1 29 Jun 00:50:21 00:53:45 22° 265° (W) 00:57:09 437.445
QB50P2 29 Jun 00:57:21 01:01:29 50° 287° (WNW) 01:05:37 145.880/145.840
DUCHIFAT 1 29 Jun 00:58:45 01:02:55 58° 286° (WNW) 01:07:05 145.980
VELOX 1 29 Jun 00:59:47 01:02:59 19° 266° (W) 01:06:10 145.980
POLYITAN 1 29 Jun 00:59:58 01:04:07 49° 287° (WNW) 01:08:15 437.675
Cosmos 2504 29 Jun 01:06:16 01:14:56 52° 76° (ENE) 01:23:10 435.465 / 435.565
50 SAT 29 Jun 01:08:52 01:09:33 10° 269° (W) 01:10:15 437.505
TISAT 1 29 Jun 01:20:36 01:24:45 81° 78° (ENE) 01:28:56 437.305
Cosmos 2491 29 Jun 01:21:51 01:30:38 82° 278° (W) 01:39:26 435.465 / 435.565
SPROUT 29 Jun 01:39:33 01:42:10 16° 267° (W) 01:44:48 437.525
UKube-1 29 Jun 01:40:28 01:41:39 11° 269° (W) 01:42:50 .
PCSat 29 Jun 01:50:35 01:55:37 41° 111° (ESE) 02:00:41 145.827
BUGSAT 1 29 Jun 01:53:13 01:56:49 30° 290° (WNW) 02:00:27 437.445
SWISSCUBE 29 Jun 02:00:08 02:04:41 45° 71° (ENE) 02:09:15 437.505
Oscar 19 29 Jun 02:07:05 02:12:02 47° 99° (E) 02:16:58 437.125/150
YUBILEINY 29 Jun 02:11:56 02:18:18 23° 280° (W) 02:24:41 435.215
BEESAT 3 29 Jun 02:22:13 02:25:55 42° 117° (ESE) 02:29:40 437.485
BEESAT 29 Jun 02:25:07 02:29:53 73° 74° (ENE) 02:34:40 436.000
SO-50 29 Jun 02:25:35 02:28:15 15° 252° (WSW) 02:30:53 436.795
ITUPSAT 1 29 Jun 02:26:28 02:31:15 74° 74° (ENE) 02:36:04 437.325
Gurwin Techsat 1B 29 Jun 02:28:03 02:32:49 32° 97° (E) 02:37:33 435.225
JAS-2 29 Jun 02:31:22 02:36:35 40° 292° (WNW) 02:41:27 435.910
ITAMSAT 1 29 Jun 02:33:19 02:35:01 11° 90° (E) 02:36:44 435.822/435.867
O/OREOS (USA 219) 29 Jun 02:41:27 02:45:49 53° 107° (ESE) 02:50:11 437.305
Cosmos 2504 29 Jun 03:00:15 03:07:52 34° 276° (W) 03:15:14 435.465 / 435.565
BEESAT 2 29 Jun 03:00:53 03:04:47 64° 118° (ESE) 03:08:44 435.950
MOZHAYETS 4 29 Jun 03:01:21 03:04:31 19° 65° (ENE) 03:07:43
KKS-1 29 Jun 03:06:55 03:10:22 23° 67° (ENE) 03:13:50 437.445
Cosmos 2491 29 Jun 03:23:52 03:28:54 16° 299° (WNW) 03:33:58 435.465 / 435.565
PCSat 29 Jun 03:34:26 03:39:07 29° 309° (NW) 03:43:49 145.827
AO-7 29 Jun 03:35:43 03:42:18 25° 94° (E) 03:48:48 29.400- 29.500
STARS 29 Jun 03:37:30 03:41:00 24° 68° (ENE) 03:44:31 437.465
SWISSCUBE 29 Jun 03:39:23 03:42:40 18° 267° (W) 03:45:59 437.505
AIST 2 29 Jun 03:51:18 03:51:48 10° 107° (ESE) 03:52:17 435.215
